This is the latest recevied weather packets stored in our database for station/object OK2JCZ-6. If no packets are shown the sender has not sent any weather packets the latest 10 day(s).
| Time | Temp. | Humidity | Pressure | Rain* | Wind** | Luminosity | Snow |
|---|---|---|---|---|---|---|---|
| 1777650582 | 18.89° C | 30% | 1024.9 hPa | 0 mm | - | - | - |
| 1777649978 | 19.44° C | 29% | 1024.9 hPa | 0 mm | - | - | - |
| 1777649377 | 19.44° C | 29% | 1025 hPa | 0 mm | - | - | - |
| 1777649078 | 20° C | 29% | 1025 hPa | 0 mm | - | - | - |
| 1777648778 | 20° C | 29% | 1025 hPa | 0 mm | - | - | - |
| 1777648477 | 20° C | 29% | 1025.1 hPa | 0 mm | - | - | - |
| 1777648178 | 20° C | 30% | 1025.1 hPa | 0 mm | - | - | - |
| 1777647878 | 19.44° C | 29% | 1025.1 hPa | 0 mm | - | - | - |
| 1777646378 | 18.33° C | 30% | 1025.3 hPa | 0 mm | - | - | - |
| 1777646078 | 18.33° C | 30% | 1025.3 hPa | 0 mm | - | - | - |
| 1777645778 | 18.33° C | 30% | 1025.4 hPa | 0 mm | - | - | - |
| 1777645478 | 19.44° C | 28% | 1025.4 hPa | 0 mm | - | - | - |
| 1777645177 | 19.44° C | 29% | 1025.3 hPa | 0 mm | - | - | - |
| 1777644878 | 18.89° C | 30% | 1025.4 hPa | 0 mm | - | - | - |
| 1777644578 | 18.89° C | 30% | 1025.5 hPa | 0 mm | - | - | - |
| 1777644278 | 18.33° C | 30% | 1025.5 hPa | 0 mm | - | - | - |
| 1777643978 | 18.33° C | 29% | 1025.5 hPa | 0 mm | - | - | - |
| 1777643077 | 18.33° C | 29% | 1025.6 hPa | 0 mm | - | - | - |
| 1777642778 | 18.33° C | 29% | 1025.6 hPa | 0 mm | - | - | - |
| 1777642477 | 18.33° C | 28% | 1025.6 hPa | 0 mm | - | - | - |
| 1777642178 | 18.33° C | 29% | 1025.7 hPa | 0 mm | - | - | - |
| 1777641877 | 18.33° C | 29% | 1025.7 hPa | 0 mm | - | - | - |
| 1777641577 | 18.33° C | 30% | 1025.7 hPa | 0 mm | - | - | - |
| 1777640677 | 17.78° C | 29% | 1026 hPa | 0 mm | - | - | - |
| 1777640377 | 17.78° C | 29% | 1026 hPa | 0 mm | - | - | - |
* Rain latest hour (hover to see other rain measurements)
** Current wind speed in m/s (hover to see current wind gust speed)